Home   Weather   Holguín   Past weeks

Flag for Cuba Past Weather in Holguín, Cuba — Yesterday and Last 2 Weeks

Now
86 °F

Broken clouds.


Feels Like: 89 °F
Forecast: 72 / 87 °F
Wind: 7 mph from South

Location: Holguin Civ / Mil

Current Time: Apr 27, 2017 at 1:06:09 pm

Latest Report: Apr 27, 2017 at 11:50 am


Visibility: N/A

Pressure: 29.98 "Hg

Humidity: 55%

Dew Point: 68 °F

Location of HolguínLocation

Past Weather in Holguín — Graph

°F

Holguín Temperature Yesterday

Maximum temperature yesterday: 91 °F (at 2:51 pm)
Minimum temperature yesterday: 72 °F (at 5:50 am)
Average temperature yesterday: 80 °F

High & Low Weather Summary for the Past Weeks

 TemperatureHumidityPressure
High93 °F (Apr 25, 3:50 pm)94% (Apr 22, 4:50 am)30.07 "Hg (Apr 22, 4:50 am)
Low61 °F (Apr 14, 5:50 am)29% (Apr 12, 1:51 pm)29.77 "Hg (Apr 23, 3:50 pm)
Average77 °F69%29.95 "Hg
* Reported Apr 12 11:50 am — Apr 27 11:50 am, Holguín, Weather by CustomWeather, © 2017

Note: Actual official high and low records may vary slightly from our data, if they occured in-between our weather recording intervals... More about our weather records

Advertising

Holguín Weather History for the Previous 24 Hours

Scroll right to see more
 ConditionsComfort  
Time TempWeatherWind HumidityBarometerVisibility
11:50 am
Thu, Apr 27
86 °FBroken clouds.7 mph55%29.98 "HgN/A
10:50 am84 °FPartly sunny.8 mph62%29.98 "HgN/A
9:50 am81 °FBroken clouds.6 mph70%29.98 "HgN/A
8:50 am79 °FPartly sunny.6 mph74%29.98 "Hg6 mi
7:50 am77 °FPartly sunny.6 mph83%29.95 "Hg5 mi
6:50 am75 °FFog.6 mph83%29.92 "Hg4 mi
5:50 am75 °FPassing clouds.6 mph83%29.89 "Hg5 mi
4:51 am75 °FPassing clouds.7 mph83%29.89 "Hg5 mi
3:51 am75 °FPassing clouds.6 mph83%29.89 "Hg5 mi
1:50 am75 °FPassing clouds.5 mph83%29.92 "HgN/A
12:50 am75 °FPassing clouds.5 mph83%29.95 "HgN/A
11:50 pm
Wed, Apr 26
77 °FPassing clouds.6 mph79%29.95 "HgN/A
10:50 pm79 °FPassing clouds.7 mph74%29.95 "HgN/A
8:51 pm79 °FPassing clouds.6 mph79%29.92 "HgN/A
7:51 pm79 °FPartly cloudy.10 mph74%29.89 "HgN/A
6:54 pm81 °FPartly sunny.7 mph74%29.89 "HgN/A
5:51 pm82 °FPartly sunny.14 mph66%29.83 "HgN/A
4:51 pm81 °FLight rain. Partly sunny.16 mph70%29.83 "Hg6 mi
3:50 pm90 °FPartly sunny.8 mph43%29.83 "HgN/A
2:51 pm91 °FPartly sunny.14 mph38%29.83 "HgN/A
2:18 pm90 °FRain. Partly sunny.13 mph46%29.86 "Hg3 mi
1:51 pm90 °FPartly sunny.9 mph43%29.86 "HgN/A
Weather by CustomWeather, © 2017

See weather overviewHow to use our weather pages